2014 UC192

Initial reported observation by Mt. Lemmon Survey on 2014-10-30.
(Discoverer will be defined when the object is numbered. See this note on how discoverers are determined.)

Orbit

Orbit type: Apollo
Near-Earth Object
One opposition object seen prior.

Note: WebGL enabled browser required.

epoch2019-04-27.0
epoch JD2458600.5
perihelion date2019-09-22.39266
perihelion JD2458748.89266
argument of perihelion (°)304.51795
ascending node (°)34.96273
inclination (°)11.68104
eccentricity0.3630300
perihelion distance (AU)0.8971391
Tisserand w.r.t. Jupiter4.6
ΔV w.r.t. Earth (km/sec)6.2
semimajor axis (AU)1.4084479
mean anomaly (°)272.50060
mean daily motion (°/day)0.58964780
aphelion distance (AU)1.920
period (years)1.67
P-vector [x]0.92677553
P-vector [y]-0.24241147
P-vector [z]-0.28692123
Q-vector [x]0.35724840
Q-vector [y]0.80481097
Q-vector [z]0.47397561
absolute magnitude23.6
phase slope0.15
uncertainty7
referenceMPO 342302
observations used37
oppositions1
arc length (days)23
first opposition used2014
last opposition used2014
residual rms (arc-secs)0.59
perturbers coarse indicatorM-v
perturbers precise indicator003Eh
first observation date used2014-10-30.0
last observation date used2014-11-22.0
computer nameMPCALB
JD of orbit computation2457176.348372
perihelion JD uncertainty (days)6.0794E-03
argument of perihelion uncertainty (°)2.5225E-03
ascending node uncertainty (°)1.1122E-03
inclination uncertainty (°)4.5844E-03
eccentricity uncertainty 1.9753E-04
perihelion distance uncertainty (AU)2.8300E-05
Minimum Orbit Intersection Distances (in AU)
for orbit epoch: 2458600.5, reference: MPO342302
Mercury0.4995
Venus0.18699
Earth0.01268
Mars0.01374
Jupiter3.51034
Saturn7.39615
Uranus16.3519
Neptune28.4075

Observations

40 total observations over interval: 2014 10 30.13436 – 2014 11 22.34385
These data are available for download (format description).

Date (UT) J2000 RA J2000 Dec Magn Location Ref
2014 10 30.13436 21 51 01.23 -18 36 29.3 19.0 V G96 – Mt. Lemmon Survey MPS 544434
2014 10 30.13894 21 51 06.59 -18 34 39.8 19.0 V G96 – Mt. Lemmon Survey MPS 544434
2014 10 30.14354 21 51 11.87 -18 32 51.4 19.0 V G96 – Mt. Lemmon Survey MPS 544434
2014 10 30.14814 21 51 17.14 -18 31 04.0 19.0 V G96 – Mt. Lemmon Survey MPS 544434
2014 10 30.19428 21 52 09.85 -18 13 02.0 19.1 V G96 – Mt. Lemmon Survey MPS 544434
2014 10 30.19460 21 52 10.29 -18 12 54.5 19.6 V G96 – Mt. Lemmon Survey MPS 544434
2014 10 30.19493 21 52 10.63 -18 12 46.8   G96 – Mt. Lemmon Survey MPS 544434
2014 10 30.22832 21 52 48.90 -17 59 41.6 20.3 V G96 – Mt. Lemmon Survey MPS 544434
2014 10 30.22898 21 52 49.68 -17 59 26.2 19.5 V G96 – Mt. Lemmon Survey MPS 544434
2014 10 30.22930 21 52 50.06 -17 59 18.4 19.2 V G96 – Mt. Lemmon Survey MPS 544434
2014 10 31.11111 22 09 50.87 -12 18 48.1 18.4 V G96 – Mt. Lemmon Survey MPS 544434
2014 10 31.11150 22 09 51.30 -12 18 38.9 19.7 V G96 – Mt. Lemmon Survey MPS 544434
2014 10 31.11189 22 09 51.76 -12 18 29.3 19.4 V G96 – Mt. Lemmon Survey MPS 544434
2014 10 31.11228 22 09 52.09 -12 18 21.5 18.9 V G96 – Mt. Lemmon Survey MPS 544434
2014 11 01.07639 22 26 42.50 -06 20 32.3   H36 – Sandlot Observatory, Scranton MPS 544434
2014 11 01.08903 22 26 54.31 -06 16 00.1 19.4 R H36 – Sandlot Observatory, Scranton MPS 544434
2014 11 09.303319 23 58 19.40 +24 24 31.2 18.8 R 705 – Apache Point MPS 609929
2014 11 09.304617 23 58 19.73 +24 24 37.2 18.0 R 705 – Apache Point MPS 609929
2014 11 09.305916 23 58 20.27 +24 24 46.2 19.1 R 705 – Apache Point MPS 609929
2014 11 09.78482 00 01 51.22 +25 18 27.0   J95 – Great Shefford MPS 544900
2014 11 09.80201 00 01 57.98 +25 20 20.1   J95 – Great Shefford MPS 544900
2014 11 09.81186 00 02 01.77 +25 21 24.7 20.3 R J95 – Great Shefford MPS 544900
2014 11 10.075038 00 03 49.55 +25 49 46.1 20.7 V H21 – Astronomical Research Observatory, Westfield MPS 544900
2014 11 10.079071 00 03 51.02 +25 50 11.9 20.5 V H21 – Astronomical Research Observatory, Westfield MPS 544900
2014 11 10.082853 00 03 52.41 +25 50 35.6 20.6 V H21 – Astronomical Research Observatory, Westfield MPS 544900
2014 11 10.10255 00 04 02.84 +25 52 35.1 19.9 R G58 – Chabot Space and Science Center, Oakland MPS 544900
2014 11 10.10829 00 04 05.01 +25 53 11.6 19.7 R G58 – Chabot Space and Science Center, Oakland MPS 544900
2014 11 10.11394 00 04 07.10 +25 53 48.1 19.6 R G58 – Chabot Space and Science Center, Oakland MPS 544900
2014 11 14.16438 00 27 25.16 +31 17 26.5 21 V H21 – Astronomical Research Observatory, Westfield MPS 545881
2014 11 14.17029 00 27 26.82 +31 17 48.7   H21 – Astronomical Research Observatory, Westfield MPS 545881
2014 11 14.17762 00 27 28.80 +31 18 12.7   H21 – Astronomical Research Observatory, Westfield MPS 545881
2014 11 14.78576 00 30 29.00 +31 53 21.1   J95 – Great Shefford MPS 544900
2014 11 14.81021 00 30 35.52 +31 54 45.7   J95 – Great Shefford MPS 544900
2014 11 14.83013 00 30 40.82 +31 55 53.1 21.1 R J95 – Great Shefford MPS 544900
2014 11 15.14823 00 32 08.35 +32 13 32.3 21.0 V H21 – Astronomical Research Observatory, Westfield MPS 545881
2014 11 15.15598 00 32 10.29 +32 13 56.5 20.9 V H21 – Astronomical Research Observatory, Westfield MPS 545881
2014 11 15.16274 00 32 12.00 +32 14 18.0 21.0 V H21 – Astronomical Research Observatory, Westfield MPS 545881
2014 11 22.33866 00 59 31.67 +36 34 19.8 21.8 R 291 – LPL/Spacewatch II MPS 547953
2014 11 22.34126 00 59 32.11 +36 34 22.2 21.0 R 291 – LPL/Spacewatch II MPS 547953
2014 11 22.34385 00 59 32.66 +36 34 26.1 21.6 R 291 – LPL/Spacewatch II MPS 547953